TVF431J EKCH-LFPO

Flight info

Callsign TVF431J
Flight time N/A
Altitude 38000
Route NEXEN T503 GIMRU DCT MICOS DCT IDOSA DCT TOLVU/N0446F390 DCT RAPOR DCT RENSA
Aircraft A20N/M-SDE2E3FGHIRWXY/LB1

Departure

Time N/A
Airport Copenhagen Kastrup Airport (EKCH)

Arrival

Time 2026-05-01 11:35
Airport Paris-Orly Airport (LFPO)
Time Latitude Longitude Altitude Speed Heading
2026-05-01 11:05 49.38069 4.05366 37986 ft 459 kts 253°
2026-05-01 11:05 49.37178 4.00636 37163 ft 459 kts 252°
2026-05-01 11:05 49.36085 3.96025 35933 ft 464 kts 244°
2026-05-01 11:06 49.34649 3.91554 34580 ft 470 kts 240°
2026-05-01 11:06 49.33142 3.87070 33239 ft 477 kts 240°
2026-05-01 11:06 49.31624 3.82535 31948 ft 480 kts 241°
2026-05-01 11:07 49.28591 3.73460 29427 ft 484 kts 241°
2026-05-01 11:07 49.27213 3.68701 28348 ft 482 kts 248°
2026-05-01 11:07 49.26227 3.63826 27397 ft 477 kts 254°
2026-05-01 11:07 49.25534 3.58955 26472 ft 471 kts 256°
2026-05-01 11:08 49.24842 3.54023 25549 ft 464 kts 255°
2026-05-01 11:08 49.24171 3.49304 24636 ft 457 kts 255°
2026-05-01 11:08 49.22825 3.39936 22813 ft 444 kts 255°
2026-05-01 11:09 49.22163 3.35352 21947 ft 437 kts 255°
2026-05-01 11:09 49.21519 3.30911 21065 ft 431 kts 255°
2026-05-01 11:09 49.20874 3.26467 20215 ft 424 kts 255°
2026-05-01 11:10 49.19625 3.17904 18525 ft 412 kts 255°
2026-05-01 11:10 49.19002 3.13665 17672 ft 405 kts 255°
2026-05-01 11:10 49.18389 3.09493 16802 ft 400 kts 255°
2026-05-01 11:10 49.17780 3.05370 15920 ft 395 kts 255°
2026-05-01 11:11 49.17179 3.01314 15069 ft 390 kts 255°
2026-05-01 11:11 49.16582 2.97300 14224 ft 385 kts 255°
2026-05-01 11:11 49.16003 2.93410 13392 ft 380 kts 255°
2026-05-01 11:11 49.15680 2.91252 12925 ft 378 kts 255°
2026-05-01 11:12 49.15113 2.87458 12128 ft 373 kts 256°
2026-05-01 11:12 49.14543 2.83637 11544 ft 363 kts 256°
2026-05-01 11:12 49.13998 2.79985 11328 ft 343 kts 255°
2026-05-01 11:12 49.13474 2.76480 11245 ft 345 kts 255°
2026-05-01 11:13 49.12930 2.72886 11215 ft 347 kts 255°
2026-05-01 11:13 49.12394 2.69329 11047 ft 339 kts 255°
2026-05-01 11:13 49.11880 2.65900 10910 ft 324 kts 255°
2026-05-01 11:13 49.11389 2.62643 10745 ft 307 kts 255°
2026-05-01 11:14 49.10932 2.59507 10323 ft 301 kts 258°
2026-05-01 11:14 49.10761 2.56336 9769 ft 300 kts 267°
2026-05-01 11:14 49.10713 2.53161 9212 ft 297 kts 267°
2026-05-01 11:14 49.10664 2.50033 8671 ft 294 kts 267°
2026-05-01 11:15 49.10618 2.47339 8353 ft 287 kts 266°
2026-05-01 11:15 49.10561 2.44367 8302 ft 281 kts 266°
2026-05-01 11:15 49.10503 2.41327 8234 ft 289 kts 266°
2026-05-01 11:15 49.10448 2.38336 8163 ft 286 kts 266°
2026-05-01 11:16 49.10393 2.35293 8097 ft 286 kts 267°
2026-05-01 11:16 49.10335 2.32261 8030 ft 287 kts 267°
2026-05-01 11:16 49.10276 2.29243 7966 ft 284 kts 266°
2026-05-01 11:16 49.10216 2.26217 7882 ft 284 kts 266°
2026-05-01 11:17 49.10156 2.23324 7823 ft 284 kts 266°
2026-05-01 11:17 49.10093 2.20299 7759 ft 285 kts 266°
2026-05-01 11:17 49.10028 2.17262 7676 ft 283 kts 266°
2026-05-01 11:17 49.09965 2.14291 7612 ft 284 kts 266°
2026-05-01 11:18 49.09902 2.11285 7538 ft 283 kts 266°
2026-05-01 11:18 49.09841 2.08280 7479 ft 283 kts 266°
2026-05-01 11:18 49.09778 2.05281 7397 ft 282 kts 267°
2026-05-01 11:18 49.09713 2.02281 7334 ft 283 kts 266°
2026-05-01 11:19 49.09644 1.99302 7262 ft 281 kts 266°
2026-05-01 11:19 49.09578 1.96314 7194 ft 281 kts 266°
2026-05-01 11:19 49.09509 1.93327 7128 ft 282 kts 266°
2026-05-01 11:19 49.09439 1.90340 7056 ft 282 kts 266°
2026-05-01 11:20 49.09368 1.87452 6993 ft 280 kts 266°
2026-05-01 11:20 49.09296 1.84483 6918 ft 280 kts 266°
2026-05-01 11:20 49.09224 1.81516 6857 ft 280 kts 266°
2026-05-01 11:20 49.09154 1.78576 6610 ft 281 kts 266°
2026-05-01 11:21 49.09082 1.75600 6471 ft 275 kts 266°
2026-05-01 11:21 49.08958 1.72660 6415 ft 279 kts 257°
2026-05-01 11:21 49.08267 1.69951 6348 ft 273 kts 236°
2026-05-01 11:21 49.07037 1.67757 6274 ft 273 kts 226°
2026-05-01 11:22 49.05739 1.65646 6205 ft 271 kts 226°
2026-05-01 11:22 49.04454 1.63547 6139 ft 272 kts 226°
2026-05-01 11:22 49.03166 1.61426 6079 ft 271 kts 226°
2026-05-01 11:22 49.01842 1.59438 5981 ft 265 kts 211°
2026-05-01 11:23 49.00156 1.58445 5859 ft 261 kts 186°
2026-05-01 11:23 48.98341 1.58244 5684 ft 262 kts 182°
2026-05-01 11:23 48.96531 1.58087 5517 ft 260 kts 182°
2026-05-01 11:23 48.94722 1.57929 5339 ft 259 kts 182°
2026-05-01 11:24 48.92917 1.57770 5189 ft 261 kts 182°
2026-05-01 11:24 48.91087 1.57613 5016 ft 265 kts 182°
2026-05-01 11:24 48.87529 1.58111 4647 ft 256 kts 154°
2026-05-01 11:25 48.85966 1.59419 4481 ft 257 kts 151°
2026-05-01 11:25 48.82842 1.62101 4145 ft 259 kts 152°
2026-05-01 11:25 48.81281 1.63449 4031 ft 257 kts 151°
2026-05-01 11:26 48.79738 1.64776 4012 ft 257 kts 152°
2026-05-01 11:26 48.76604 1.67469 3992 ft 258 kts 152°
2026-05-01 11:26 48.75052 1.68807 3986 ft 258 kts 152°
2026-05-01 11:27 48.73493 1.70149 3996 ft 257 kts 152°
2026-05-01 11:27 48.71958 1.71472 4001 ft 258 kts 152°
2026-05-01 11:27 48.70389 1.72817 4006 ft 258 kts 152°
2026-05-01 11:27 48.68842 1.74154 3995 ft 261 kts 152°
2026-05-01 11:28 48.67322 1.75474 4042 ft 263 kts 152°
2026-05-01 11:28 48.65697 1.76887 3995 ft 259 kts 152°
2026-05-01 11:28 48.64127 1.78252 4019 ft 262 kts 152°
2026-05-01 11:29 48.60937 1.81028 3991 ft 261 kts 149°
2026-05-01 11:29 48.59644 1.82915 3999 ft 263 kts 123°
2026-05-01 11:29 48.59041 1.88239 3993 ft 269 kts 92°
2026-05-01 11:30 48.59065 1.91085 4020 ft 273 kts 91°
2026-05-01 11:30 48.59168 1.93917 3987 ft 269 kts 83°
2026-05-01 11:30 48.59672 1.96615 4007 ft 273 kts 70°
2026-05-01 11:30 48.60475 1.99218 4005 ft 274 kts 64°
2026-05-01 11:31 48.61382 2.01739 3998 ft 269 kts 63°
2026-05-01 11:31 48.62244 2.04179 3984 ft 260 kts 64°
2026-05-01 11:31 48.63084 2.06543 3956 ft 254 kts 64°
2026-05-01 11:31 48.63918 2.08900 3662 ft 255 kts 64°
2026-05-01 11:32 48.64762 2.11278 3315 ft 256 kts 64°
2026-05-01 11:32 48.65609 2.13660 3011 ft 259 kts 63°
2026-05-01 11:32 48.66130 2.15135 2754 ft 258 kts 64°
2026-05-01 11:32 48.66374 2.15822 2669 ft 256 kts 63°
2026-05-01 11:33 48.66924 2.17354 2423 ft 256 kts 65°
2026-05-01 11:33 48.67678 2.19506 2132 ft 249 kts 62°
2026-05-01 11:33 48.68505 2.21833 1793 ft 227 kts 63°
2026-05-01 11:33 48.69209 2.23809 1558 ft 198 kts 63°
2026-05-01 11:34 48.69814 2.25523 1291 ft 171 kts 63°
2026-05-01 11:34 48.70344 2.27020 1061 ft 152 kts 63°
2026-05-01 11:34 48.70800 2.28309 874 ft 140 kts 63°
2026-05-01 11:34 48.71245 2.29571 694 ft 137 kts 63°
2026-05-01 11:35 48.71695 2.30843 517 ft 136 kts 63°
2026-05-01 11:35 48.72139 2.32100 334 ft 135 kts 62°
2026-05-01 11:35 48.72546 2.33259 293 ft 94 kts 62°
2026-05-01 11:35 48.72727 2.33779 299 ft 40 kts 69°
2026-05-01 11:36 48.72808 2.34404 295 ft 63 kts 83°
2026-05-01 11:36 48.72865 2.35016 296 ft 54 kts 83°
2026-05-01 11:36 48.72900 2.35429 292 ft 33 kts 83°
2026-05-01 11:36 48.72809 2.35612 295 ft 21 kts 172°
2026-05-01 11:37 48.72675 2.35644 291 ft 20 kts 170°
2026-05-01 11:37 48.72533 2.35700 291 ft 22 kts 141°
2026-05-01 11:37 48.72479 2.35922 291 ft 24 kts 92°
2026-05-01 11:37 48.72494 2.36172 294 ft 25 kts 73°
2026-05-01 11:38 48.72546 2.36431 291 ft 26 kts 73°
2026-05-01 11:38 48.72617 2.36663 293 ft 23 kts 23°
2026-05-01 11:38 48.72701 2.36718 297 ft 4 kts 26°
2026-05-01 11:38 48.72711 2.36725 295 ft 0 kts 26°